Location: Ikejouine
(32.5142°N, 5.4699°W)
Time: 18:57:59
(UTC+00:00)

ATLAS 2AS CENTAUR R/B - Pass Details

Date: 09 April 2020
Orbit: 933 x 1279 km, 63.7° (Epoch: 25 May)

Event Time Altitude Azimuth Distance (km) Brightness Sun altitude
Rises 19:58:56 0° 333° (NNW) 4,119 6.5 -15.3°
Reaches altitude 10° 20:01:50 10° 337° (NNW) 3,107 5.7 -15.9°
Maximum altitude 20:09:09 60° 57° (ENE) 1,258 2.9 -17.3°
Enters shadow 20:13:02 27° 127° (SE) 1,939 3.5 -18.1°
